TOP > 外国特許検索

外国特許検索

Display results per page Option
Patent state
Country

Clear

Hits 4685 results

No. Application number
Gazette No
Country
Title
Release Date
Update Date
Information Provider
3801 2018JP023028 WO 2018230731 世界知的所有権機関(WIPO) ONCOGENE TRANSCRIPTION CONTROL REGION 2019/05/07 2019/05/07 長崎大学
3802 2018JP021140 WO 2018225639 世界知的所有権機関(WIPO) METHOD FOR PRODUCING ADSORBENT, ADSORBENT, AND TREATMENT METHOD 2019/05/07 2019/05/07 新潟大学
3803 2018JP021139 WO 2018225638 世界知的所有権機関(WIPO) METHOD FOR SEPARATING HEAVY METAL 新技術説明会 2019/05/07 2019/05/07 新潟大学
3804 2018JP028270 WO 2019026795 世界知的所有権機関(WIPO) HYDROPHILIC POLYAMIDE OR POLYIMIDE 新技術説明会 2019/05/07 2019/05/07 科学技術振興機構(JST)
3805 2018JP027961 WO 2019022158 世界知的所有権機関(WIPO) PHOTORESPONSIVE NUCLEOTIDE ANALOG CAPABLE OF PHOTOCROSSLINKING IN VISIBLE LIGHT REGION 2019/05/07 2019/05/07 北陸先端科学技術大学院大学
3806 2018JP031302 WO 2019039581 世界知的所有権機関(WIPO) SAMPLE OBSERVATION METHOD, SAMPLE OBSERVATION DEVICE, AND MICROSCOPE 2019/05/07 2019/05/07 情報・システム研究機構 国立情報学研究所
3807 2018JP029810 WO 2019039292 世界知的所有権機関(WIPO) METHOD FOR PRODUCING MICROCAPSULES OR BEADS 2019/05/07 2019/05/07 鹿児島大学
3808 2018JP031180 WO 2019039551 世界知的所有権機関(WIPO) METAMATERIAL STRUCTURE AND REFRACTIVE INDEX SENSOR 2019/05/07 2019/05/07 東北大学
3809 2018JP030841 WO 2019039471 世界知的所有権機関(WIPO) WAVE-ACTIVATED POWER GENERATION DEVICE AND WAVE-ACTIVATED POWER GENERATION METHOD 2019/05/07 2019/05/07 筑波大学
3810 2018JP030058 WO 2019039321 世界知的所有権機関(WIPO) METHOD FOR PRODUCING α-ALUMINUM OXIDE PARTICLE, AND α-ALUMINUM OXIDE PARTICLE 新技術説明会 2019/05/07 2019/05/07 岐阜大学
3811 2018JP030234 WO 2019035452 世界知的所有権機関(WIPO) MARKER GENERATION DEVICE, THREE-DIMENSIONAL MEDIUM, INFORMATION PROCESSING SYSTEM, MARKER GENERATION METHOD, AND RECORDING MEDIUM 新技術説明会 2019/05/08 2019/05/08 お茶の水女子大学
3812 2018JP030683 WO 2019039438 世界知的所有権機関(WIPO) OBSERVATION METHOD USING NON-HUMAN MAMMALIAN CEREBRAL INFARCTION MODEL, AND OBSERVATION DEVICE USING NON-HUMAN MAMMALIAN CEREBRAL INFARCTION MODEL 2019/05/08 2019/05/08 三重大学
3813 2018JP003991 WO 2018147265 世界知的所有権機関(WIPO) VACCINE AGAINST PATHOGENIC GRAM-NEGATIVE BACTERIA 2019/05/08 2019/05/08 京都府立医科大学
3814 2018JP006447 WO 2018159445 世界知的所有権機関(WIPO) OPTICAL COMB CONTROL METHOD AND OPTICAL COMB CONTROL DEVICE 新技術説明会 2019/05/08 2019/05/08 電気通信大学
3815 2018JP018011 WO 2018216472 世界知的所有権機関(WIPO) HEAT TRANSPORTATION DEVICE AND FURNACE USING SAME 新技術説明会 2019/05/08 2019/05/08 東京農工大学
3816 2018JP032373 WO 2019045051 世界知的所有権機関(WIPO) HEMIPLEGIC FOREARM FUNCTION RECOVERY TRAINING DEVICE AND METHOD 2019/05/08 2019/05/08 鹿児島大学
3817 2018JP031499 WO 2019044739 世界知的所有権機関(WIPO) PHOSPHOR AND USE OF SAME 2019/05/08 2019/05/08 京都工芸繊維大学
3818 2018JP028725 WO 2019044336 世界知的所有権機関(WIPO) HOLOGRAPHIC IMAGING DEVICE AND DATA PROCESSING METHOD THEREFOR 新技術説明会 2019/05/08 2019/05/08 兵庫県立大学
3819 2018JP031611 WO 2019044780 世界知的所有権機関(WIPO) DEVICE FOR EMITTING LIGHT HAVING LOW ATTRACTION TO INSECTS, DISPLAY DEVICE, METHOD FOR EMITTING LIGHT HAVING LOW ATTRACTION TO INSECTS, AND DISPLAY METHOD 2019/05/08 2019/05/08 浜松医科大学
3820 2018JP031489 WO 2019044736 世界知的所有権機関(WIPO) DETECTION METHOD AND DETECTION PROBE FOR COLIBACTIN AND COLIBACTIN-PRODUCING BACTERIA 新技術説明会 2019/05/08 2019/05/08 静岡県立大学
3821 2018JP035831 WO 2019065794 世界知的所有権機関(WIPO) ANALGESIC DRUG USING PAC1 RECEPTOR ANTAGONISTIC DRUG 2019/05/08 2019/05/08 鹿児島大学
3822 2018JP036853 WO 2019069910 世界知的所有権機関(WIPO) EMOTION DETERMINATION DEVICE, EMOTION DETERMINATION METHOD, AND PROGRAM 2019/05/08 2019/05/08 名古屋市立大学
3823 2018JP034672 WO 2019059237 世界知的所有権機関(WIPO) TWO-DRUG TYPE LOCAL INJECTION SOLUTION FOR SUBMUCOSAL INJECTION 2019/05/08 2019/05/08 京都府立医科大学
3824 2018JP033161 WO 2019049974 世界知的所有権機関(WIPO) IMMUNE FUNCTION EVALUATION METHOD AND ELISA SYSTEM THEREFOR 2019/05/08 2019/05/08 産業医科大学
3825 2018JP035015 WO 2019059342 世界知的所有権機関(WIPO) OPTICAL WAVEGUIDE DEVICE, PHOTOELECTRIC CONVERSION DEVICE, BUILDING, ELECTRONIC DEVICE, MOVING BODY, AND ELECTROMAGNETIC WAVEGUIDE DEVICE 2019/05/08 2019/05/08 北海道大学
3826 2018JP031681 WO 2019049720 世界知的所有権機関(WIPO) SUPERCONDUCTING DEVICE AND MAGNET DEVICE 2019/05/08 2019/05/08 東京工業大学
3827 2018JP033185 WO 2019049981 世界知的所有権機関(WIPO) METHOD AND DEVICE FOR ANALYZING LAMINATION-SHAPED ARTICLE, AND METHOD AND DEVICE FOR MANUFACTURING LAMINATION-SHAPED ARTICLE 2019/05/08 2019/05/08 大阪府立大学
3828 2018JP033978 WO 2019054442 世界知的所有権機関(WIPO) IMPLANT INSTALLATION STRENGTH EVALUATION METHOD, IMPLANT INSTALLATION STRENGTH EVALUATION DEVICE, AND PROGRAM 新技術説明会 2019/05/08 2019/05/08 量子科学技術研究開発機構
3829 2018JP034191 WO 2019054484 世界知的所有権機関(WIPO) METHOD FOR MANUFACTURING LAYERED STRUCTURE OF MAGNETIC BODY AND BiSb, MAGNETORESISTIVE MEMORY, AND PURE SPIN INJECTION SOURCE 2019/05/08 2019/05/08 東京工業大学
3830 2018JP026287 WO 2019013272 世界知的所有権機関(WIPO) INTERMETALLIC COMPOUND, HYDROGEN STORAGE/RELEASE MATERIAL, CATALYST AND METHOD FOR PRODUCING AMMONIA 2019/05/09 2019/05/09 科学技術振興機構(JST)
3831 2018JP031419 WO 2019039597 世界知的所有権機関(WIPO) ORGANIC OPTICAL MATERIAL 2019/05/09 2019/05/09 科学技術振興機構(JST)
3832 2018JP029924 WO 2019031584 世界知的所有権機関(WIPO) MEASUREMENT DEVICE AND IRRADIATION DEVICE 2019/05/09 2019/05/09 科学技術振興機構(JST)
3833 2018JP036399 WO 2019066013 世界知的所有権機関(WIPO) HETEROELEMENT-CONTAINING GRAPHENE 2019/05/09 2019/05/09 科学技術振興機構(JST)
3834 2018JP034515 WO 2019059190 世界知的所有権機関(WIPO) COMPOSITE OXIDE, METAL-SUPPORTING MATERIAL AND AMMONIA SYNTHESIS CATALYST 新技術説明会 2019/05/09 2019/05/09 科学技術振興機構(JST)
3835 2018JP034156 WO 2019054474 世界知的所有権機関(WIPO) ALKALINE EARTH METAL TITANATE CRYSTAL LAMINATE 新技術説明会 2019/05/09 2019/05/09 科学技術振興機構(JST)
3836 2018JP032031 WO 2019044931 世界知的所有権機関(WIPO) THERMOELECTRIC MATERIAL, METHOD FOR PRODUCING SAME AND THERMOELECTRIC POWER GENERATION MODULE USING SAME 新技術説明会 2019/06/18 2019/07/24 物質・材料研究機構
3837 2018JP000873 WO 2018139237 世界知的所有権機関(WIPO) IMAGE PROCESSING METHOD 2019/06/27 2019/07/24 産総研
3838 2019JP006898 WO 2019163967 世界知的所有権機関(WIPO) MULTILAYER BODY AND METHOD FOR PRODUCING SAME 新技術説明会 2019/06/27 2019/10/23 産総研
3839 2013JP004059 WO 2014020823 世界知的所有権機関(WIPO) IMAGE PROCESSING SYSTEM, AND IMAGE PROCESSING METHOD 新技術説明会 2019/06/27 2019/07/24 産総研
3840 2019JP014846 WO 2019194236 世界知的所有権機関(WIPO) NUCLEIC ACID FOR CONTROLLING GENE EXPRESSION 新技術説明会 2019/06/27 2019/10/23 産総研
3841 2019JP003815 WO 2019198316 世界知的所有権機関(WIPO) METHOD FOR IMPROVING PHARMACOKINETICS OF MIDDLE MOLECULE HAVING BIOLOGICAL ACTIVITY AND METHOD FOR PRODUCING MIDDLE MOLECULE LIBRARY USING IMPROVED PHARMACOKINETICS 2019/06/27 2020/01/28 産総研
3842 2017JP043634 WO 2018123467 世界知的所有権機関(WIPO) NOVEL INDOLOQUINAZOLINE COMPOUND AND METHOD FOR PRODUCING SAME 新技術説明会 2019/06/27 2019/07/24 産総研
3843 2018JP007873 WO 2018159775 世界知的所有権機関(WIPO) OBJECT TRACKING DEVICE 2019/07/24 2019/07/24 筑波大学
3844 2018JP012149 WO 2018181185 世界知的所有権機関(WIPO) RESIN COMPOSITION AND METHOD FOR DETERMINING FLAME RETARDANCY OF RESIN COMPOSITION 2019/07/24 2019/07/24 同志社大学
3845 2018JP013777 WO 2018181960 世界知的所有権機関(WIPO) METHOD FOR PRODUCING OSTEOBLAST CLUSTER USING HUMAN iPS CELLS 新技術説明会 2019/07/24 2019/07/24 東北大学
3846 2018JP004580 WO 2018163712 世界知的所有権機関(WIPO) COMPOUND, SYNTHESIS METHOD FOR COMPOUND, AND ORGANIC SEMICONDUCTOR MATERIAL 2019/07/24 2019/07/24 広島大学
3847 2018JP004603 WO 2018179905 世界知的所有権機関(WIPO) INTERIOR CT IMAGE GENERATION METHOD 2019/07/24 2019/07/24 筑波大学
3848 2018JP017592 WO 2018207720 世界知的所有権機関(WIPO) METHOD AND DEVICE FOR THREE DIMENSIONAL MEASUREMENT USING FEATURE QUANTITY 新技術説明会 2019/07/24 2019/07/24 福井大学
3849 2018JP018788 WO 2018212192 世界知的所有権機関(WIPO) METHOD AND MARKER FOR ESTIMATING PROGNOSIS AND/OR METASTASIS POTENTIAL OF CANCER 2019/07/25 2019/07/25 京都府立医科大学
3850 2018JP017420 WO 2018216438 世界知的所有権機関(WIPO) WIRELESS COMMUNICATION APPARATUS AND ANTENNA DEVICE 2019/07/25 2019/07/25 電気通信大学
3851 2018JP037352 WO 2019073923 世界知的所有権機関(WIPO) ANOMALOUS ITEM DETERMINATION METHOD 新技術説明会 2019/07/25 2019/07/25 岐阜大学
3852 2018JP037257 WO 2019073902 世界知的所有権機関(WIPO) CELL PROLIFERATION DETECTION METHOD USING FLUORESCENCE IN WATER-IN-OIL EMULSION CULTURING 2019/07/25 2019/07/25 産総研
3853 2018JP038040 WO 2019078100 世界知的所有権機関(WIPO) METHOD FOR PRODUCING COMPOSITE INCLUDING METAL COATED WITH SOLID MICROPARTICLES 新技術説明会 2019/07/25 2019/07/25 山形大学
3854 2018JP038134 WO 2019078117 世界知的所有権機関(WIPO) OPTICAL SIGNAL TRANSMISSION SYSTEM AND OPTICAL FIBER 2019/07/25 2019/07/25 大阪府立大学
3855 2018JP039182 WO 2019082841 世界知的所有権機関(WIPO) DENTAL IMAGE PROCESSING DEVICE, DENTAL IMAGING SYSTEM, DENTAL IMAGE PROCESSING METHOD, AND PROGRAM 新技術説明会 2019/07/25 2019/07/25 新潟大学
3856 2018JP039244 WO 2019082857 世界知的所有権機関(WIPO) JOINED BODY OF METAL AND RESIN MATERIAL 新技術説明会 2019/07/25 2019/07/25 信州大学
3857 2018JP039951 WO 2019083023 世界知的所有権機関(WIPO) COMPOSITION FOR USE IN TREATMENT OF CANCER 2019/07/25 2019/07/25 筑波大学
3858 2018JP040544 WO 2019088179 世界知的所有権機関(WIPO) NUCLEOSIDE DERIVATIVE AND USE THEREOF 2019/07/25 2019/07/25 岐阜大学
3859 2018JP041013 WO 2019093273 世界知的所有権機関(WIPO) SOLID ELECTROLYTE FOR ALL-SOLID SODIUM BATTERIES, AND ALL-SOLID SODIUM BATTERY 2019/07/25 2019/07/25 大阪府立大学
3860 2018JP044306 WO 2019111829 世界知的所有権機関(WIPO) PROPHYLACTIC OR THERAPEUTIC AGENT FOR PULMONARY HYPERTENSION COMPRISING MEBENDAZOLE AND/OR ITRACONAZOLE OR SALT THEREOF 2019/07/25 2019/07/25 東北大学
3861 2018JP010564 WO 2019123670 世界知的所有権機関(WIPO) IRON OXIDE FOR ORANGE PIGMENT AND METHOD FOR PRODUCING SAME 2019/07/25 2019/07/25 岡山大学
3862 2018JP038638 WO 2019082763 世界知的所有権機関(WIPO) SOIL SENSOR AND SOIL MEASUREMENT METHOD 2019/07/26 2019/07/26 静岡大学
3863 2018JP039434 WO 2019082912 世界知的所有権機関(WIPO) PROPHYLACTIC OR THERAPEUTIC AGENT FOR CHRONIC KIDNEY DISEASE 2019/07/26 2019/07/26 北里大学
3864 2018JP038954 WO 2019078343 世界知的所有権機関(WIPO) ENCRYPTION CONTROL SYSTEM, ENCRYPTION CONTROL METHOD AND ENCRYPTION CONTROL PROGRAM 2019/07/26 2019/07/26 電気通信大学
3865 2018JP037241 WO 2019073900 世界知的所有権機関(WIPO) MACHINE LEARNING DEVICE, DETERMINATION DEVICE, MACHINE LEARNING METHOD, DETERMINATION METHOD, LEARNING PROGRAM, DETERMINATION PROGRAM, AND RECORDING MEDIUM 2019/07/26 2019/07/26 徳島大学
3866 2018JP038171 WO 2019074109 世界知的所有権機関(WIPO) INORGANIC-PARTICLE COMPOSITE, PRODUCTION METHOD THEREFOR, AND INORGANIC-PARTICLE COMPOSITE DISPERSION 2019/07/26 2019/07/26 東京工業大学
3867 2018US027528 WO 2018191642 世界知的所有権機関(WIPO) NOVEL AMODIAQUINE ANALOGS AND METHODS OF USES THEREOF 2019/07/26 2019/07/26 鹿児島大学
3868 2018JP039992 WO 2019087988 世界知的所有権機関(WIPO) CONSTRUCT HAVING STRUCTURE AND CELL MASS LINKED TOGETHER 2019/07/26 2019/07/26 横浜市立大学
3869 2018JP039554 WO 2019082942 世界知的所有権機関(WIPO) METHOD FOR DETECTING PLANT STRESS AND METHOD FOR DETECTING PHOTOPROTEIN IN PLANT 2019/07/26 2019/07/26 筑波大学
3870 2018JP038900 WO 2019078311 世界知的所有権機関(WIPO) METHOD FOR MANUFACTURING SUBSTANTIALLY 1FL BODIES SHAPED AS CAPSULES, AND DEVICE USED FOR SAME 2019/07/26 2019/07/26 北陸先端科学技術大学院大学
3871 2018JP042320 WO 2019098286 世界知的所有権機関(WIPO) RARE EARTH COMPOUND, LIGHT-EMITTING BODY, LIGHT-EMITTING DEVICE, WAVELENGTH CONVERSION MATERIAL, AND SECURITY MATERIAL 2019/07/26 2019/07/26 北海道大学
3872 2018JP041417 WO 2019093400 世界知的所有権機関(WIPO) FLUORESCENT COMPOUND RESPONDING TO MITOCHONDRIAL MEMBRANE POTENTIAL 2019/07/26 2019/07/26 高知大学
3873 2018JP042181 WO 2019098246 世界知的所有権機関(WIPO) MODIFIED COLLAGEN PROTEIN AND APPLICATION OF SAME 2019/07/26 2019/07/26 筑波大学
3874 2018JP044773 WO 2019111964 世界知的所有権機関(WIPO) IMAGE DISPLAY DEVICE, IMAGE DISPLAY METHOD, AND IMAGE DISPLAY SYSTEM 2019/07/26 2019/07/26 筑波大学
3875 2018JP043696 WO 2019107385 世界知的所有権機関(WIPO) NOVEL MICROALGAE AND USE FOR SAME 2019/07/29 2019/07/29 科学技術振興機構(JST)
3876 2018JP043787 WO 2019107411 世界知的所有権機関(WIPO) TUNNELING FIELD EFFECT TRANSISTOR 2019/07/29 2019/07/29 科学技術振興機構(JST)
3877 2018JP047940 WO 2019131795 世界知的所有権機関(WIPO) SILICON BULK THERMOELECTRIC CONVERSION MATERIAL 2019/07/29 2019/07/29 科学技術振興機構(JST)
3878 2011JP057579 WO 2011125596 世界知的所有権機関(WIPO) METHOD FOR LAMINATING FIBER-REINFORCED THERMOPLASTIC RESIN PREPREG 新技術説明会 2019/08/20 2019/10/23 広島県立総合技術研究所
3879 2016JP066930 WO 2016199766 世界知的所有権機関(WIPO) METHOD FOR IMPREGNATING SUBSTANCE INTO FOOD MATERIAL 新技術説明会 2019/08/20 2019/10/23 広島県立総合技術研究所
3880 2018JP019838 WO 2018221349 世界知的所有権機関(WIPO) EVALUATION DEVICE, EVALUATION METHOD, PROGRAM, AND INFORMATION RECORDING MEDIUM 2019/08/23 2019/10/23 理化学研究所
3881 2019JP001360 WO 2019142882 世界知的所有権機関(WIPO) POWER GENERATION DEVICE AND POWER GENERATION METHOD 新技術説明会 2019/08/23 2019/10/23 理化学研究所
3882 2018JP032517 WO 2019097815 世界知的所有権機関(WIPO) ELECTRODE MATERIAL FOR CAPACITOR 新技術説明会 2019/09/18 2019/10/23 東京理科大学
3883 2019JP027882 WO 2020017493 世界知的所有権機関(WIPO) COMPLEX OXIDE CERAMIC, METHOD FOR PRODUCING SAME, AND ARTICLE 新技術説明会 2019/10/18 2020/05/29 東京工業大学
3884 2019JP034432 WO 2020050215 世界知的所有権機関(WIPO) METHOD FOR PRODUCING OXIDE USING β-MANGANESE DIOXIDE 新技術説明会 2019/10/18 2020/05/29 東京工業大学
3885 2018JP020636 WO 2018225588 世界知的所有権機関(WIPO) SPINAL FUSION IMPLANT 2019/10/24 2019/10/24 神戸大学
3886 2018JP023131 WO 2018235777 世界知的所有権機関(WIPO) IMAGE DATA PROCESSING DEVICE, PLANT CULTIVATION SYSTEM, AND IMAGE DATA PROCESSING METHOD 新技術説明会 2019/10/24 2019/10/24 静岡大学
3887 2018JP048211 WO 2019131897 世界知的所有権機関(WIPO) PROPHYLACTIC AGENT AND/OR THERAPEUTIC AGENT FOR CATARACT, MEDICINAL COMPOSITION FOR PREVENTING AND/OR TREATING CATARACT, USE OF PPAR ACTIVATOR FOR PRODUCING SAME, AND EYEDROPS 2019/10/24 2019/10/24 福井大学
3888 2018JP048125 WO 2019131872 世界知的所有権機関(WIPO) SUBSTRATE FOR POLYMER BRUSH FORMATION, PRODUCTION METHOD FOR SUBSTRATE FOR POLYMER BRUSH FORMATION, AND PRECURSOR LIQUID FOR USE IN PRODUCTION METHOD FOR SUBSTRATE FOR POLYMER BRUSH FORMATION 新技術説明会 2019/10/24 2019/10/24 産総研
3889 2018JP048471 WO 2019132004 世界知的所有権機関(WIPO) PROPHYLACTIC AGENT OR THERAPEUTIC AGENT FOR ALZHEIMER'S DISEASE, SCREENING METHOD THEREFOR, AND COMPOSITION FOR PREVENTING OR TREATING ALZHEIMER'S DISEASE 2019/10/24 2019/10/24 熊本大学
3890 2018JP048411 WO 2019131989 世界知的所有権機関(WIPO) PROPHYLACTIC OR THERAPEUTIC FOR GM1 GANGLIOSIDOSIS, AND COMPOSITION FOR PREVENTING OR TREATING GM1 GANGLIOSIDOSIS 2019/10/24 2019/10/24 熊本大学
3891 2018JP047362 WO 2019131552 世界知的所有権機関(WIPO) BIOMARKERS FOR DETERMINING CANCER SUCH AS PANCREATIC CANCER 2019/10/24 2019/10/24 熊本大学
3892 2018JP047230 WO 2019131502 世界知的所有権機関(WIPO) METHOD FOR PRODUCING LIPIDS 2019/10/24 2019/10/24 広島大学
3893 2018JP047871 WO 2019131769 世界知的所有権機関(WIPO) NOVEL ANTI-PAD4 ANTIBODY 2019/10/24 2019/10/24 名古屋市立大学
3894 2018JP044203 WO 2019130983 世界知的所有権機関(WIPO) CARBON NITRIDE, METHOD FOR PRODUCING SAME, AND SEMICONDUCTOR MATERIAL 新技術説明会 2019/10/24 2019/10/24 山形大学
3895 2018JP047588 WO 2019131640 世界知的所有権機関(WIPO) LIGHT ABSORBING DEVICE, MANUFACTURING METHOD THEREOF, AND PHOTOELECTRODE 2019/10/24 2019/10/24 北海道大学
3896 2018JP045295 WO 2019124141 世界知的所有権機関(WIPO) POWER CONVERSION DEVICE AND POWER SUPPLY DEVICE 2019/10/24 2019/10/24 静岡大学
3897 2018JP045505 WO 2019124164 世界知的所有権機関(WIPO) ENCRYPTED DATA PROCESSING SYSTEM AND PROGRAM 2019/10/24 2019/10/24 東京理科大学
3898 2018JP047049 WO 2019124509 世界知的所有権機関(WIPO) ANTI-HIV PHARMACEUTICAL COMPOSITION 2019/10/24 2019/10/24 熊本大学
3899 2018JP043967 WO 2019124019 世界知的所有権機関(WIPO) CURVATURE DETECTION SENSOR 2019/10/24 2019/10/24 筑波大学
3900 2018JP044746 WO 2019116988 世界知的所有権機関(WIPO) PAIN SENSATION MEASUREMENT DEVICE AND PAIN SENSATION MEASUREMENT METHOD 2019/10/24 2019/10/24 群馬大学

PAGE TOP